GW1757 Weather Reports


time (UTC)temp
F
wind
direction
speed
knots
gust
knots
rain 1hr
in
rain 24hr
in
rain mn
in
humidity
%
barometer
mb
20260508125824 80 217 0.9 2.6 0.00 1.57 1.57 90 1008.6
20260508125316 80 224 0.9 3.5 0.00 1.57 1.57 90 1008.6
20260508124806 81 224 0.9 3.5 0.00 1.57 1.57 90 1008.6
20260508124259 81 201 0.9 2.6 0.00 1.57 1.57 90 1008.5
20260508123759 81 213 0.9 2.6 0.00 1.57 1.57 90 1008.5
20260508123257 81 217 0.9 2.6 0.00 1.57 1.57 90 1008.5
20260508122802 81 230 0.9 2.6 0.00 1.57 1.57 90 1008.6
20260508122519 81 231 0.9 2.6 0.00 1.57 1.57 90 1008.5
20260508121756 81 185 0.9 2.6 0.00 1.57 1.57 90 1008.4
20260508121257 81 240 0.9 2.6 0.00 1.57 1.57 90 1008.4
20260508120757 81 224 0.9 3.5 0.00 1.57 1.57 89 1008.4
20260508120301 82 359 0.9 3.5 0.00 1.57 1.57 89 1008.4
20260508115755 82 223 0.9 2.6 0.00 1.57 1.57 89 1008.4
20260508115520 82 212 0.9 2.6 0.00 1.57 1.57 88 1008.3
20260508114753 83 214 0.9 2.6 0.00 1.57 1.57 88 1008.2
20260508114253 83 218 0.9 2.6 0.00 1.57 1.57 88 1008.1
20260508113751 83 99 1.7 3.5 0.00 1.57 1.57 87 1008.1
20260508113250 83 98 2.6 3.5 0.00 1.57 1.57 87 1008.0
20260508112752 83 81 1.7 3.5 0.00 1.57 1.57 87 1008.1
20260508112254 83 64 2.6 4.3 0.00 1.57 1.57 87 1007.9
20260508111750 83 79 2.6 4.3 0.00 1.57 1.57 87 1007.7
20260508111251 83 67 2.6 4.3 0.00 1.57 1.57 87 1007.7
20260508110751 82 53 2.6 3.5 0.00 1.57 1.57 88 1007.7
20260508110248 82 77 1.7 3.5 0.00 1.57 1.57 89 1007.6
20260508105749 82 37 1.7 3.5 0.00 1.57 1.57 89 1007.6
20260508105249 82 8 1.7 3.5 0.00 1.57 1.57 89 1007.6
20260508104750 82 354 1.7 3.5 0.00 1.57 1.57 89 1007.5
20260508104249 82 52 2.6 4.3 0.00 1.57 1.57 89 1007.4
20260508103749 82 354 1.7 4.3 0.00 1.57 1.57 89 1007.3
20260508103249 82 359 1.7 3.5 0.00 1.57 1.57 89 1007.2
20260508102749 82 359 1.7 3.5 0.00 1.57 1.57 89 1007.2
20260508102250 82 359 2.6 3.5 0.00 1.57 1.57 89 1007.1
20260508101749 82 14 2.6 4.3 0.00 1.57 1.57 89 1007.0
20260508101252 82 31 2.6 5.2 0.00 1.57 1.57 89 1006.9
20260508100755 82 350 3.5 7.0 0.00 1.57 1.57 89 1006.8
20260508100252 82 331 2.6 7.0 0.00 1.57 1.57 88 1006.8
20260508095752 83 29 3.5 7.0 0.00 1.57 1.57 88 1006.7
20260508095246 83 17 3.5 7.8 0.00 1.57 1.57 88 1006.6
20260508094740 83 31 4.3 7.8 0.00 1.57 1.57 88 1006.5
20260508094234 83 49 3.5 7.8 0.00 1.57 1.57 88 1006.5
20260508093728 83 359 3.5 7.0 0.00 1.57 1.57 87 1006.4
20260508093222 84 359 3.5 7.0 0.00 1.57 1.57 87 1006.4
20260508092716 84 12 2.6 7.0 0.00 1.57 1.57 87 1006.3
20260508092428 84 36 2.6 6.1 0.00 1.57 1.57 86 1006.2
20260508091703 84 33 2.6 7.8 0.00 1.57 1.57 86 1006.2
20260508091203 84 4 3.5 7.8 0.00 1.57 1.57 86 1006.1
20260508090652 84 359 4.3 7.8 0.00 1.57 1.57 86 1006.0
20260508090148 84 20 4.3 7.8 0.00 1.57 1.57 85 1006.0
20260508085640 85 61 4.3 8.7 0.00 1.57 1.57 85 1006.0
20260508085134 85 60 3.5 8.7 0.00 1.57 1.57 84 1005.9
20260508084629 85 68 3.5 10.4 0.00 1.57 1.57 84 1005.8
20260508084122 85 45 4.3 10.4 0.00 1.57 1.57 85 1005.7
20260508083615 85 66 5.2 10.4 0.00 1.57 1.57 84 1005.7
20260508083329 85 359 5.2 11.3 0.00 1.57 1.57 83 1005.7
20260508082603 85 33 5.2 9.6 0.00 1.57 1.57 83 1005.7
20260508082058 85 15 6.1 10.4 0.00 1.57 1.57 82 1005.7
20260508081552 85 37 6.1 13.9 0.00 1.57 1.57 84 1005.5
20260508081312 85 12 6.1 13.9 0.00 1.57 1.57 83 1005.5
20260508080540 85 333 6.1 11.3 0.00 1.57 1.57 83 1005.5
20260508080034 85 10 5.2 11.3 0.00 1.57 1.57 84 1005.5
20260508075528 86 27 4.3 11.3 0.00 1.57 1.57 82 1005.5
20260508075022 86 61 3.5 8.7 0.00 1.57 1.57 82 1005.5
20260508074516 86 21 4.3 9.6 0.00 1.57 1.57 81 1005.5
20260508074011 86 8 5.2 9.6 0.00 1.57 1.57 81 1005.3
20260508073506 86 8 5.2 9.6 0.00 1.57 1.57 80 1005.3
20260508072958 86 70 4.3 10.4 0.00 1.57 1.57 79 1005.3
20260508072453 87 349 5.2 13.0 0.00 1.57 1.57 79 1005.3
20260508072210 87 38 5.2 13.0 0.00 1.57 1.57 78 1005.5
20260508071926 87 33 6.1 12.2 0.00 1.57 1.57 77 1005.5
20260508070941 86 328 7.0 13.9 0.00 1.57 1.57 77 1005.5
20260508070427 86 22 7.0 13.9 0.00 1.57 1.57 78 1005.6
20260508065922 86 114 7.0 13.9 0.00 1.57 1.57 78 1005.6
20260508065416 86 8 7.0 13.9 0.00 1.57 1.57 77 1005.6
20260508064909 86 21 7.8 14.8 0.00 1.57 1.57 79 1005.6
20260508064403 86 30 8.7 14.8 0.00 1.57 1.57 80 1005.6
20260508063858 86 13 7.8 14.8 0.00 1.57 1.57 80 1005.5
20260508063352 86 27 6.1 13.0 0.00 1.57 1.57 80 1005.6
20260508062845 87 354 6.1 12.2 0.00 1.57 1.57 80 1005.6
20260508062345 87 359 6.1 15.6 0.00 1.57 1.57 79 1005.6
20260508061834 88 43 7.0 15.6 0.00 1.57 1.57 77 1005.7
20260508061328 88 25 7.0 13.0 0.00 1.57 1.57 74 1005.8
20260508060822 88 54 6.1 13.0 0.00 1.57 1.57 70 1005.9
20260508060316 88 37 5.2 12.2 0.00 1.57 1.57 70 1005.8
20260508060254 88 359 3.5 12.2 0.00 1.57 1.57 69 1005.9
20260508055306 88 92 5.2 13.0 0.00 1.57 1.57 72 1006.1
20260508054758 87 4 7.0 14.8 0.00 1.57 1.57 73 1006.0
20260508054252 87 29 7.0 14.8 0.00 1.57 1.57 71 1006.1
20260508053746 87 79 5.2 11.3 0.00 1.57 1.57 74 1006.2
20260508053239 87 62 6.1 14.8 0.00 1.57 1.57 73 1006.3
20260508052734 87 22 6.1 15.6 0.00 1.57 1.57 71 1006.4
20260508051722 87 62 7.0 13.9 0.00 1.57 1.57 73 1006.7
20260508051215 87 33 6.1 13.9 0.00 1.57 1.57 77 1006.7
20260508050716 87 46 6.1 13.0 0.00 1.57 1.57 75 1006.7
20260508050216 86 45 7.8 15.6 0.00 1.57 1.57 77 1006.7
20260508045716 86 61 7.0 16.5 0.00 1.57 1.57 76 1006.8
20260508045217 86 70 6.1 16.5 0.00 1.57 1.57 81 1006.9
20260508044717 86 43 7.0 14.8 0.00 1.57 1.57 82 1006.9
20260508044216 86 4 7.0 14.8 0.00 1.57 1.57 81 1007.0
20260508043717 86 14 7.0 14.8 0.00 1.57 1.57 83 1007.1
20260508043216 85 23 7.0 13.9 0.00 1.57 1.57 83 1007.1
20260508042725 85 68 7.8 15.6 0.00 1.57 1.57 83 1007.2
20260508042216 85 80 8.7 15.6 0.00 1.57 1.57 83 1007.4
20260508041716 85 108 8.7 13.9 0.00 1.57 1.57 83 1007.4
20260508041214 85 35 8.7 16.5 0.00 1.57 1.57 84 1007.4
20260508040935 85 359 8.7 16.5 0.00 1.57 1.57 84 1007.6
20260508040213 85 359 8.7 14.8 0.00 1.57 1.57 85 1007.6
20260508035714 85 359 7.8 14.8 0.00 1.57 1.57 84 1007.6
20260508035215 85 43 8.7 14.8 0.00 1.57 1.57 84 1007.6
20260508034714 84 345 8.7 14.8 0.00 1.57 1.57 85 1007.6
20260508034214 84 20 7.8 14.8 0.00 1.57 1.57 85 1007.8
20260508033714 85 359 7.8 14.8 0.00 1.57 1.57 85 1007.9
20260508033214 84 8 7.8 14.8 0.00 1.57 1.57 85 1007.9
20260508032714 84 359 8.7 14.8 0.00 1.57 1.57 85 1008.0
20260508032214 84 345 8.7 14.8 0.00 1.57 1.57 87 1007.9
20260508031716 84 359 7.0 13.9 0.00 1.57 1.57 85 1008.0
20260508031214 84 18 7.0 13.9 0.00 1.57 1.57 87 1008.2
20260508030714 84 14 7.8 13.9 0.00 1.57 1.57 86 1008.2
20260508030214 84 25 8.7 13.9 0.00 1.57 1.57 86 1008.2
20260508025713 84 60 7.8 13.9 0.00 1.57 1.57 86 1008.2
20260508025212 84 23 7.8 13.0 0.00 1.57 1.57 87 1008.3
20260508024711 84 337 7.0 13.0 0.00 1.57 1.57 87 1008.3
20260508024212 84 42 7.8 13.9 0.00 1.57 1.57 87 1008.2
20260508023944 83 25 7.8 13.9 0.00 1.57 1.57 88 1008.2
20260508023210 84 33 7.0 14.8 0.00 1.57 1.57 87 1008.2
20260508022753 83 354 7.0 14.8 0.00 1.57 1.57 87 1008.2
20260508021921 83 62 6.1 13.0 0.00 1.57 1.57 88 1008.3
20260508021147 83 359 7.0 13.9 0.00 1.57 1.57 88 1008.5
20260508020641 83 25 7.0 13.9 0.00 1.57 1.57 88 1008.6
20260508020135 83 29 7.0 13.9 0.00 1.57 1.57 88 1008.5
20260508015629 83 25 7.0 13.9 0.00 1.57 1.57 89 1008.5
20260508015123 83 14 6.1 13.0 0.00 1.57 1.57 89 1008.7
20260508014617 83 346 5.2 13.0 0.00 1.57 1.57 89 1008.8
20260508014111 82 26 4.3 10.4 0.00 1.57 1.57 90 1008.7
20260508013606 82 344 5.2 12.2 0.00 1.57 1.57 90 1008.8
20260508013059 82 29 6.1 12.2 0.00 1.57 1.57 89 1008.7
20260508012553 82 9 6.1 12.2 0.00 1.57 1.57 90 1008.7
20260508012047 82 60 5.2 12.2 0.00 1.57 1.57 90 1008.7
20260508011810 82 19 5.2 11.3 0.00 1.57 1.57 90 1008.8
20260508011038 82 29 5.2 12.2 0.00 1.57 1.57 90 1008.9
20260508010529 82 359 5.2 12.2 0.00 1.57 1.57 90 1008.9
20260508010024 82 89 4.3 12.2 0.00 1.57 1.57 90 1008.8
20260508005517 82 12 2.6 10.4 0.00 1.57 1.57 89 1008.8
20260508005011 83 341 2.6 7.8 0.00 1.57 1.57 90 1008.9
20260508004505 82 97 3.5 8.7 0.00 1.57 1.57 90 1009.0
20260508003959 82 92 3.5 8.7 0.00 1.57 1.57 89 1008.9
20260508003452 82 21 3.5 8.7 0.00 1.57 1.57 91 1008.8
20260508003215 81 106 4.3 9.6 0.00 1.57 1.57 91 1008.8
20260508002441 81 54 4.3 9.6 0.00 1.57 1.57 91 1008.8
20260508001935 81 41 4.3 9.6 0.00 1.57 1.57 91 1008.8
20260508001428 81 58 3.5 9.6 0.00 1.57 1.57 92 1008.7
20260508000923 81 55 1.7 5.2 0.00 1.57 1.57 92 1008.7
20260508000419 80 41 2.6 7.8 0.00 1.57 1.57 92 1008.8
20260507235911 80 112 1.7 7.8 0.00 1.57 1.57 92 1008.8
20260507235405 80 49 0.9 5.2 0.00 1.57 1.57 92 1008.7
20260507234859 80 118 0.9 5.2 0.00 1.57 1.57 92 1008.6
20260507234356 80 141 0.9 3.5 0.00 1.57 1.57 92 1008.6
20260507233847 80 88 1.7 6.1 0.00 1.57 1.57 92 1008.5
20260507233608 80 112 2.6 6.1 0.00 1.57 1.57 92 1008.5
20260507233101 80 121 1.7 6.1 0.00 1.57 1.57 92 1008.4
20260507232328 80 128 1.7 6.1 0.00 1.57 1.57 92 1008.5
20260507231824 81 107 0.9 5.2 0.00 1.57 1.57 92 1008.5
20260507231317 81 133 1.7 5.2 0.00 1.57 1.57 92 1008.4
20260507230811 81 135 2.6 6.1 0.00 1.57 1.57 92 1008.4
20260507230305 80 111 1.7 6.1 0.00 1.57 1.57 92 1008.3
20260507225759 80 144 0.9 4.3 0.00 1.57 1.57 92 1008.3
20260507225253 81 110 0.9 4.3 0.00 1.57 1.57 93 1008.2
20260507224749 80 133 0.9 4.3 0.00 1.57 1.57 93 1008.2
20260507224507 80 110 0.9 2.6 0.00 1.57 1.57 93 1008.1
20260507223735 80 135 1.7 7.0 0.00 1.57 1.57 93 1008.0
20260507223230 79 126 2.6 7.0 0.00 1.57 1.57 93 1008.0
20260507222726 79 144 2.6 5.2 0.00 1.57 1.57 93 1007.9
20260507222217 79 120 3.5 6.1 0.00 1.57 1.57 93 1007.7
20260507221711 79 141 3.5 6.1 0.00 1.57 1.57 93 1007.6
20260507221205 79 126 3.5 7.8 0.00 1.57 1.57 93 1007.7
20260507220700 79 122 3.5 7.8 0.00 1.57 1.57 93 1007.6
20260507220153 79 122 3.5 6.1 0.00 1.57 1.57 93 1007.5
20260507215647 79 125 3.5 7.0 0.00 1.57 1.57 93 1007.4
20260507215141 79 119 3.5 7.0 0.00 1.57 1.57 93 1007.2
20260507214635 79 126 3.5 7.0 0.00 1.57 1.57 93 1007.2
20260507214130 79 118 3.5 7.0 0.00 1.57 1.57 93 1007.1
20260507213624 79 135 3.5 7.0 0.00 1.57 1.57 93 1007.1
20260507213347 79 126 1.7 7.0 0.00 1.57 1.57 93 1007.1
20260507212611 79 113 0.9 7.0 0.00 1.57 1.57 93 1007.0
20260507212105 79 108 0.0 3.5 0.00 1.57 1.57 93 1007.1
20260507211600 79 122 0.0 1.7 0.00 1.57 1.57 94 1007.0
20260507211054 79 107 0.0 1.7 0.00 1.57 1.57 93 1007.0
20260507210817 79 112 0.0 1.7 0.00 1.57 1.57 93 1007.0
20260507210055 79 209 0.0 1.7 0.00 1.57 1.57 93 1006.8
20260507205820 79 187 0.9 5.2 0.00 1.57 1.57 93 1006.8
20260507205055 79 126 1.7 5.2 0.00 1.57 1.57 93 1006.8
20260507204553 79 102 2.6 5.2 0.00 1.57 1.57 93 1006.7
20260507204321 79 120 2.6 6.1 0.00 1.57 1.57 93 1006.8
20260507203551 79 125 2.6 6.1 0.00 1.57 1.57 94 1006.7
20260507203053 79 128 1.7 3.5 0.00 1.57 1.57 94 1006.6
20260507202551 79 108 1.7 5.2 0.00 1.57 1.57 94 1006.7
20260507202051 79 139 2.6 7.0 0.00 1.57 1.57 94 1006.7
20260507201551 79 141 3.5 7.0 0.00 1.57 1.57 94 1006.6
20260507201313 79 131 3.5 7.0 0.00 1.57 1.57 94 1006.6
20260507200551 79 122 4.3 7.8 0.00 1.57 1.57 94 1006.6
20260507200309 79 112 5.2 8.7 0.00 1.57 1.57 94 1006.5
20260507195550 79 114 5.2 8.7 0.00 1.57 1.57 94 1006.5
20260507195047 79 104 4.3 7.0 0.00 1.57 1.57 94 1006.5
20260507194547 79 96 3.5 6.1 0.00 1.57 1.57 94 1006.6
20260507194047 79 106 3.5 6.1 0.00 1.57 1.57 94 1006.5
20260507193809 79 359 3.5 6.1 0.00 1.57 1.57 94 1006.6
20260507193047 79 95 2.6 6.1 0.00 1.57 1.57 94 1006.5
20260507192548 78 102 2.6 6.1 0.00 1.57 1.57 94 1006.5
20260507192048 78 131 3.5 6.1 0.00 1.57 1.57 94 1006.5
20260507191547 79 359 2.6 6.1 0.00 1.57 1.57 94 1006.6
20260507191047 79 125 0.9 5.2 0.00 1.57 1.57 94 1006.8
20260507190546 79 98 0.0 0.0 0.00 1.57 1.57 95 1006.7
20260507190047 78 112 0.0 0.0 0.00 1.57 1.57 95 1006.7
20260507185817 78 124 0.0 0.0 0.02 1.57 1.57 95 1006.8
20260507185047 78 147 0.0 0.0 0.05 1.57 1.57 95 1006.8
20260507184806 78 135 0.0 0.0 0.07 1.57 1.57 95 1006.7
20260507184047 78 359 0.0 0.0 0.17 1.57 1.57 95 1006.8
20260507183547 78 359 0.9 4.3 0.44 1.57 1.57 95 1006.8
20260507183047 78 156 2.6 7.8 0.63 1.57 1.57 95 1006.9
20260507182757 78 123 3.5 7.8 0.77 1.57 1.57 95 1007.0
20260507182034 78 132 3.5 7.0 0.93 1.57 1.57 95 1006.7
20260507181528 78 127 4.3 7.8 0.93 1.57 1.57 95 1006.5
20260507181022 78 138 2.6 7.8 0.98 1.57 1.57 95 1006.7
20260507180956 78 136 1.7 7.8 1.13 1.57 1.57 95 1007.0
20260507180010 78 112 1.7 7.0 1.28 1.57 1.57 95 1006.9
20260507175505 78 119 2.6 7.0 1.34 1.55 1.54 95 1006.8
20260507174958 78 132 2.6 7.8 1.31 1.51 1.52 94 1006.7
20260507174452 78 132 2.6 8.7 1.30 1.50 1.49 94 1006.5
20260507174440 78 141 2.6 8.7 1.12 1.26 1.32 94 1006.6
20260507173704 78 157 1.7 6.1 1.06 1.10 1.09 94 1006.7
20260507173151 79 157 0.9 5.2 0.93 0.94 0.93 94 1006.8
20260507172428 79 145 0.9 5.2 0.70 0.71 0.73 94 1006.5
20260507171922 79 214 0.9 7.8 0.64 0.65 0.64 94 1006.6
20260507171415 79 84 1.7 7.8 0.63 0.64 0.64 94 1006.8
20260507170910 79 340 3.5 7.8 0.56 0.57 0.56 94 1006.8
20260507170404 79 14 4.3 8.7 0.37 0.38 0.38 94 1007.1
20260507165858 79 125 3.5 8.7 0.28 0.28 0.28 94 1007.0
20260507165352 79 144 1.7 5.2 0.20 0.21 0.20 94 1006.9
20260507164846 79 127 0.9 7.8 0.20 0.20 0.20 93 1007.0
20260507164340 80 132 1.7 7.8 0.19 0.20 0.19 93 1007.1
20260507163833 80 156 3.5 9.6 0.09 0.10 0.11 93 1007.3
20260507163327 80 114 5.2 12.2 0.02 0.02 0.03 92 1007.4
20260507162822 81 48 5.2 12.2 0.00 0.01 0.00 92 1007.4
20260507162316 81 31 5.2 14.8 0.00 0.01 0.00 92 1007.4
20260507161810 81 64 6.1 14.8 0.00 0.01 0.00 92 1007.4
20260507161303 81 16 5.2 14.8 0.00 0.01 0.00 91 1007.3
20260507160758 81 39 5.2 9.6 0.00 0.01 0.00 92 1007.3
20260507160517 81 10 5.2 9.6 0.00 0.01 0.00 92 1007.4
20260507155745 81 50 3.5 9.6 0.00 0.01 0.01 92 1007.4
20260507155241 81 45 3.5 10.4 0.00 0.01 0.01 92 1007.4
20260507154733 81 64 4.3 10.4 0.00 0.01 0.01 91 1007.5
20260507154456 81 53 5.2 11.3 0.00 0.01 0.01 91 1007.4
20260507153721 81 60 5.2 11.3 0.00 0.01 0.01 91 1007.5
20260507153215 81 70 4.3 9.6 0.00 0.01 0.01 91 1007.5
20260507152709 81 68 4.3 9.6 0.00 0.01 0.01 91 1007.5
20260507152203 81 65 4.3 9.6 0.00 0.01 0.01 91 1007.6
20260507151922 81 78 4.3 12.2 0.00 0.01 0.01 91 1007.6
20260507151151 81 70 4.3 12.2 0.00 0.01 0.01 91 1007.7
20260507150646 81 66 4.3 10.4 0.00 0.01 0.01 91 1007.7
20260507150140 81 26 4.3 9.6 0.00 0.01 0.01 91 1007.8
20260507145633 81 31 4.3 8.7 0.00 0.01 0.01 91 1007.7
20260507145127 81 45 3.5 7.8 0.00 0.01 0.01 92 1007.8
20260507144621 81 58 2.6 7.0 0.00 0.01 0.01 92 1007.9
20260507144342 81 57 2.6 6.1 0.00 0.01 0.01 92 1007.9
20260507143611 81 71 2.6 6.1 0.00 0.01 0.01 92 1008.0
20260507143335 81 64 1.7 5.2 0.00 0.01 0.01 92 1008.0
20260507142557 81 14 1.7 4.3 0.00 0.01 0.01 91 1008.0
20260507142051 81 95 0.9 4.3 0.00 0.01 0.01 92 1007.9
20260507141548 81 154 0.0 0.0 0.00 0.01 0.01 92 1007.8
20260507141038 81 156 0.0 0.9 0.00 0.01 0.01 92 1007.9
20260507140533 81 156 0.9 2.6 0.00 0.01 0.01 91 1007.8
20260507140027 81 156 0.9 2.6 0.00 0.01 0.01 92 1007.8
20260507135522 81 64 0.0 1.7 0.00 0.01 0.01 92 1007.8
20260507135015 81 63 0.9 2.6 0.00 0.01 0.01 92 1007.8
20260507134510 80 112 0.9 2.6 0.00 0.01 0.01 92 1007.8
20260507134003 80 109 0.0 1.7 0.00 0.01 0.01 92 1007.8
20260507133457 80 107 0.0 0.9 0.00 0.01 0.01 92 1007.9
20260507133217 80 110 0.0 1.7 0.00 0.01 0.01 92 1007.8
20260507132445 80 106 0.9 4.3 0.00 0.01 0.01 92 1007.7
20260507131939 80 40 1.7 4.3 0.00 0.01 0.01 92 1007.7
20260507131649 80 158 1.7 4.3 0.00 0.01 0.01 92 1007.6
20260507130927 80 152 0.9 4.3 0.00 0.01 0.01 92 1007.7
20260507130651 80 163 0.0 3.5 0.00 0.01 0.01 91 1007.5
20260507130144 81 173 0.0 2.6 0.00 0.01 0.01 91 1007.5